Location: Central Falls
(41.8900°N, 71.3929°W)
Time: 04:00:55
(UTC+00:00)

Vanguard 2 Rocket - Pass Details

Date: 04 December 2023
Orbit: 555 x 3309 km, 32.9° (Epoch: 01 March)

Event Time Altitude Azimuth Distance (km) Brightness Sun altitude
Rises 20:36:23 0° 250° (WSW) 6,616 13.1 5.1°
Reaches altitude 10° 20:40:27 10° 247° (WSW) 5,838 13.1 4.5°
Maximum altitude 20:59:28 63° 173° (S) 3,546 10.1 1.6°
Drops below altitude 10° 21:17:23 10° 98° (E) 5,547 10.4 -1.3°
Sets 21:21:08 0° 95° (E) 6,286 10.7 -1.9°
